Location: Wanzleben
(52.0609°N, 11.4408°E)
Time: 14:46:35
(UTC+00:00)

Cosmos 2263 Rocket - Pass Details

Date: 19 January 2021
Orbit: 825 x 847 km, 71.0° (Epoch: 05 March)

Event Time Altitude Azimuth Distance (km) Brightness Sun altitude
Rises 19:18:10 0° 265° (W) 3,405 6.4 -33.0°
Reaches altitude 10° 19:21:19 10° 282° (WNW) 2,470 5.5 -33.5°
Maximum altitude 19:25:24 20° 328° (NNW) 1,866 4.3 -34.1°
Enters shadow 19:26:58 18° 350° (N) 1,965 4.3 -34.4°
